Total_Precipitation_Accumulation
2.48 2.82 3.21 3.51 4.04 4.19 4.14 4.23 4.38 4.59 4.74 5.05 5.16 5.46 5.80 6.02 6.16 6.07 5.85 5.90 5.92 6.00 6.08 5.87 5.73 5.57 5.56 5.51 5.49 5.38 5.15 4.86 4.87 4.80 4.38 3.82 3.58 3.56 3.51 3.53 3.59 3.58 3.54
2.74 2.95 3.15 3.56 4.09 4.35 4.42 4.49 4.71 5.04 5.24 5.52 5.99 6.31 6.63 6.83 7.00 7.02 6.59 6.31 6.19 6.08 5.99 6.12 6.07 5.93 5.85 5.71 5.53 5.44 5.26 4.89 4.84 4.86 4.84 4.28 3.95 3.51 3.07 3.06 3.11 3.26 3.47
2.91 3.01 3.06 3.49 3.85 4.11 4.28 4.51 4.78 5.27 5.82 6.21 6.64 7.00 7.22 7.23 7.03 6.72 6.66 6.45 6.27 6.16 5.98 5.87 5.72 5.67 5.56 5.54 5.42 5.22 5.06 4.86 4.75 4.73 4.98 4.57 4.07 3.61 3.28 2.89 2.82 3.00 3.16
2.82 2.97 3.11 3.42 3.73 4.03 4.22 4.60 5.15 5.91 6.47 6.88 7.42 7.96 8.11 7.81 7.41 6.95 6.49 6.21 5.97 5.68 5.46 5.37 5.32 5.25 4.93 4.81 4.68 4.66 4.52 4.40 4.23 4.28 4.14 4.01 3.84 3.86 3.75 3.44 3.20 3.14 3.15
2.50 2.77 2.94 3.17 3.66 3.96 4.21 4.57 5.20 5.99 6.72 7.52 8.15 8.59 8.47 8.06 7.58 6.88 6.28 5.83 5.44 5.09 4.81 4.72 4.64 4.42 4.05 3.77 3.73 3.92 3.96 3.93 3.85 3.88 3.84 3.85 3.71 3.58 3.58 3.55 3.45 3.37 3.17
2.27 2.39 2.58 2.96 3.50 3.78 3.97 4.32 4.97 5.78 6.46 7.06 7.56 7.80 7.69 7.48 6.92 6.23 5.59 5.20 4.90 4.55 4.17 3.82 3.64 3.40 3.24 3.09 3.12 3.25 3.33 3.56 3.67 3.82 3.81 3.79 3.68 3.47 3.44 3.34 3.32 3.39 3.26
2.18 2.18 2.34 2.64 3.05 3.20 3.54 3.94 4.41 5.10 5.56 5.89 6.24 6.44 6.57 6.38 6.01 5.50 5.02 4.60 4.15 3.79 3.45 3.13 3.06 2.95 2.87 2.81 2.86 2.94 2.92 3.04 3.23 3.36 3.45 3.48 3.44 3.42 3.43 3.52 3.49 3.36 3.17
2.21 2.19 2.35 2.57 2.83 3.01 3.15 3.31 3.60 4.01 4.20 4.25 4.47 4.77 4.84 4.79 4.64 4.36 3.96 3.69 3.36 2.99 2.80 2.57 2.40 2.40 2.47 2.41 2.55 2.63 2.66 2.69 2.75 2.78 3.05 3.14 3.11 3.16 3.14 3.19 3.39 3.45 3.23
2.04 2.22 2.34 2.37 2.38 2.41 2.48 2.58 2.79 2.94 3.00 3.09 3.18 3.35 3.40 3.37 3.32 3.20 2.94 2.73 2.59 2.33 2.18 2.09 2.06 2.02 2.08 2.22 2.30 2.27 2.29 2.42 2.47 2.51 2.69 2.69 2.63 2.70 2.80 2.91 3.09 3.36 3.32
1.85 2.04 2.20 2.20 2.20 2.11 2.15 2.25 2.39 2.47 2.47 2.55 2.55 2.51 2.54 2.53 2.54 2.42 2.30 2.24 2.17 2.05 2.00 1.90 1.84 1.80 1.79 1.84 1.95 2.02 2.06 2.11 2.22 2.32 2.38 2.39 2.32 2.36 2.45 2.65 2.83 2.97 3.05
1.82 2.00 2.03 2.00 2.01 1.99 2.02 2.10 2.12 2.15 2.16 2.16 2.21 2.21 2.11 2.09 2.16 2.15 2.01 1.98 1.95 1.82 1.76 1.69 1.60 1.54 1.54 1.61 1.73 1.77 1.83 1.90 1.97 2.08 2.11 2.14 2.15 2.24 2.24 2.29 2.35 2.52 2.66
1.97 1.96 1.90 1.84 1.80 1.88 1.94 2.04 2.01 1.95 1.99 1.89 1.84 1.86 1.90 1.86 1.88 1.86 1.75 1.74 1.81 1.73 1.68 1.58 1.48 1.37 1.36 1.42 1.45 1.48 1.55 1.69 1.72 1.78 1.86 1.81 1.86 1.95 1.94 2.01 2.07 2.17 2.32
2.35 2.19 2.00 1.93 1.88 1.88 1.86 1.76 1.80 1.82 1.84 1.82 1.77 1.73 1.77 1.81 1.79 1.73 1.70 1.67 1.72 1.71 1.62 1.49 1.41 1.36 1.30 1.32 1.35 1.40 1.42 1.49 1.56 1.58 1.63 1.64 1.70 1.65 1.60 1.67 1.78 1.84 1.92
2.56 2.42 2.21 2.16 2.06 2.02 2.03 1.91 1.84 1.72 1.74 1.74 1.71 1.75 1.81 1.87 1.85 1.83 1.83 1.77 1.68 1.61 1.55 1.50 1.41 1.35 1.29 1.29 1.31 1.31 1.40 1.44 1.44 1.43 1.44 1.40 1.43 1.46 1.52 1.55 1.72 1.81 1.95
2.43 2.41 2.37 2.38 2.29 2.12 2.05 1.96 1.83 1.67 1.66 1.63 1.67 1.74 1.82 1.84 1.76 1.80 1.78 1.75 1.74 1.61 1.56 1.49 1.44 1.31 1.18 1.11 1.16 1.19 1.25 1.36 1.39 1.38 1.30 1.27 1.33 1.41 1.42 1.37 1.53 1.70 1.87
2.59 2.48 2.38 2.31 2.35 2.22 2.09 1.95 1.88 1.82 1.77 1.73 1.70 1.67 1.68 1.63 1.60 1.60 1.64 1.57 1.55 1.56 1.52 1.41 1.32 1.25 1.12 1.16 1.15 1.18 1.26 1.33 1.35 1.29 1.27 1.22 1.21 1.21 1.23 1.20 1.30 1.52 1.63
2.78 2.57 2.50 2.38 2.35 2.41 2.42 2.28 2.06 1.93 1.71 1.64 1.61 1.53 1.47 1.43 1.46 1.43 1.44 1.49 1.56 1.55 1.46 1.35 1.32 1.31 1.27 1.14 1.02 1.04 1.13 1.25 1.24 1.24 1.29 1.14 1.02 1.13 1.12 1.15 1.16 1.20 1.25
2.98 2.72 2.56 2.47 2.42 2.43 2.42 2.25 2.07 1.84 1.66 1.62 1.54 1.42 1.32 1.29 1.40 1.36 1.37 1.44 1.45 1.43 1.43 1.41 1.45 1.46 1.25 1.00 0.84 0.95 1.15 1.26 1.16 1.12 1.19 1.25 1.26 1.17 1.15 1.16 1.20 1.21 1.19
3.01 2.82 2.60 2.50 2.45 2.30 2.21 2.15 1.91 1.80 1.73 1.58 1.48 1.33 1.25 1.28 1.31 1.25 1.28 1.37 1.36 1.33 1.36 1.38 1.44 1.42 1.27 1.05 0.88 0.92 1.09 1.21 1.18 1.15 1.11 1.10 1.11 1.09 1.13 1.22 1.39 1.42 1.37
2.69 2.62 2.44 2.33 2.34 2.19 2.07 2.09 1.96 1.79 1.73 1.61 1.51 1.37 1.34 1.34 1.34 1.35 1.32 1.29 1.28 1.25 1.24 1.28 1.38 1.33 1.23 1.03 0.84 0.83 0.91 1.06 1.21 1.32 1.29 1.19 1.09 1.05 1.10 1.24 1.44 1.50 1.47
2.21 2.27 2.27 2.26 2.17 1.98 1.95 2.11 2.22 2.05 1.74 1.61 1.56 1.56 1.55 1.48 1.43 1.45 1.42 1.36 1.26 1.25 1.28 1.28 1.33 1.38 1.20 0.98 0.83 0.83 0.87 0.99 1.15 1.25 1.31 1.23 1.13 1.09 1.12 1.21 1.38 1.46 1.49
1.87 2.02 2.19 2.16 2.11 2.00 1.95 1.93 1.99 1.98 1.81 1.70 1.67 1.63 1.54 1.47 1.46 1.54 1.47 1.43 1.47 1.42 1.41 1.36 1.36 1.32 1.14 0.91 0.82 0.82 0.83 0.87 1.01 1.15 1.17 1.20 1.16 1.11 1.14 1.16 1.29 1.45 1.63
1.78 1.86 1.97 2.01 2.00 1.90 1.92 1.92 1.87 1.71 1.68 1.79 1.74 1.66 1.57 1.51 1.53 1.57 1.47 1.38 1.48 1.44 1.34 1.25 1.27 1.20 1.09 0.94 0.83 0.81 0.82 0.81 0.84 0.93 1.00 1.03 1.03 1.08 1.19 1.26 1.32 1.46 1.72
1.62 1.72 1.84 1.92 1.89 1.75 1.72 1.73 1.65 1.65 1.70 1.70 1.66 1.66 1.63 1.51 1.43 1.41 1.35 1.31 1.33 1.39 1.37 1.27 1.21 1.10 1.00 0.87 0.77 0.75 0.76 0.75 0.73 0.79 0.90 1.02 1.10 1.18 1.32 1.51 1.60 1.61 1.70
1.51 1.59 1.78 1.86 1.77 1.62 1.51 1.46 1.55 1.66 1.75 1.65 1.50 1.47 1.43 1.36 1.33 1.27 1.20 1.16 1.10 1.11 1.18 1.13 1.01 0.91 0.86 0.77 0.80 0.78 0.76 0.75 0.77 0.80 0.90 1.11 1.26 1.36 1.40 1.47 1.57 1.61 1.56
1.35 1.51 1.61 1.65 1.59 1.50 1.45 1.38 1.44 1.56 1.62 1.55 1.47 1.42 1.31 1.24 1.14 1.11 1.11 1.14 1.04 0.97 0.94 0.98 0.89 0.77 0.75 0.75 0.73 0.71 0.70 0.77 0.84 0.88 1.01 1.15 1.25 1.33 1.40 1.44 1.44 1.42 1.40